User: anonymous
Location: Caltech
(34.1382°N, 118.1253°W)
Time: 11:09:42
(UTC-07:00)
Language:

Oscar 19 - Orbit

View from above orbital plane
View from above orbital plane
View from above satellite
View from above satellite

Ground track
Ground track

The orbit data is extracted from the following two-line orbital elements,

1 20442U 90005G   14264.04159290  .00000120  00000-0  60041-4 0   633
2 20442 098.4837 199.9619 0011186 219.8510 140.1854 14.32588888288400
Epoch (UTC): 21 September 2014 00:59:53
Eccentricity: 0.0011186
inclination: 98.4837°
perigee height: 775 km
apogee height: 791 km
right ascension of ascending node: 199.9619°
argument of perigee: 219.8510°
revolutions per day: 14.32588888
mean anomaly at epoch: 140.1854°
orbit number at epoch: 28840

The dashed part of the orbit path shows where the satellite is in the earth's shadow,  

DLR